Location: Newark
(54.3167°N, 48.3667°E)
Time: 16:52:08
(UTC+00:00)

ISS - Visible Passes

Search period start: 06 December 2019 00:00
Search period end: 16 December 2019 00:00
Orbit: 411 x 421 km, 51.6° (Epoch: 07 December)

Date Brightness Start Highest point End Pass type
(mag) Time Alt. Az. Time Alt. Az. Time Alt. Az.
06 Dec -2.5 14:19:06 10° W 14:22:14 37° SSW 14:24:22 17° SE visible
06 Dec -0.5 15:56:39 10° WSW 15:57:18 12° WSW 15:57:18 12° WSW visible
07 Dec -2.7 13:30:37 10° W 13:33:51 44° SSW 13:37:04 10° ESE visible
07 Dec -1.3 15:07:42 10° WSW 15:10:04 18° SSW 15:11:08 16° S visible
08 Dec -1.5 14:19:00 10° W 14:21:46 24° SSW 14:24:31 10° SSE visible
09 Dec -1.9 13:30:25 10° W 13:33:25 31° SSW 13:36:25 10° SE visible
10 Dec -0.7 14:19:20 10° WSW 14:21:07 14° SW 14:22:54 10° S visible
11 Dec -0.8 13:30:23 10° WSW 13:32:50 19° SSW 13:35:15 10° SSE visible
13 Dec 0.2 13:31:50 10° SW 13:32:02 10° SW 13:32:15 10° SW visible
